Weather History for Flippin, AR

Change the Weather History Date:

Thursday, January 2, 2014

  Actual Average Record
Temperature  
Mean Temperature 24 °F -  
Max Temperature 33 °F 45 °F 73 °F (2004)
Min Temperature 15 °F 26 °F 6 °F (2001)
Degree Days  
Heating Degree Days 41    
Moisture  
Dew Point 8 °F    
Average Humidity 54    
Maximum Humidity 68    
Minimum Humidity 40    
Precipitation  
Precipitation 0.00 in - - ()
Sea Level Pressure  
Sea Level Pressure 30.30 in    
Wind  
Wind Speed 13 mph (NW)    
Max Wind Speed 23 mph    
Max Gust Speed 29 mph    
Visibility 10 miles    
Events      
Averages and records for this station are not official NWS values.
T = Trace of Precipitation, MM = Missing Value Source: NWS Daily Summary

Daily Weather History Graph

Daily Weather History Graph

Search for Another Location

Airport:

Trip Planner

Search our weather history database for the weather conditions in past years. The results will help you decide how hot, cold, wet, or windy it might be!

Date:

Astronomy

Jan. 02, 2014 Rise Set
Actual Time 7:21 AM CST 5:07 PM CST
Civil Twilight 6:53 AM CST 5:35 PM CST
Nautical Twilight 6:21 AM CST 6:07 PM CST
Astronomical Twilight 5:50 AM CST 6:39 PM CST
Moon 8:06 AM CST (1/2) 7:00 PM CST (1/2)
Length of Visible Light 10h 42m
Length of Day
9h 45m
Waxing Crescent, 3% of the Moon is Illuminated
Jan 2
Waxing Crescent
Jan 7
First Quarter
Jan 15
Full
Jan 23
Last Quarter
Jan 30
New

Hourly Weather History & Observations

Time (CST) Temp. Windchill Dew Point Humidity Pressure Visibility Wind Dir Wind Speed Gust Speed Precip Events Conditions
12:15 AM 33.8 °F 24.8 °F 19.4 °F 56% 30.02 in 10.0 mi NW 12.7 mph 24.2 mph N/A   Overcast
12:35 AM 32.0 °F 21.2 °F 19.4 °F 60% 30.03 in 10.0 mi NW 16.1 mph 23.0 mph N/A   Overcast
12:55 AM 30.2 °F 19.3 °F 19.4 °F 64% 30.05 in 9.0 mi NW 15.0 mph 23.0 mph N/A   Mostly Cloudy
1:15 AM 28.4 °F 14.7 °F 17.6 °F 64% 30.06 in 9.0 mi NW 21.9 mph 27.6 mph N/A   Mostly Cloudy
1:35 AM 28.4 °F 15.8 °F 17.6 °F 64% 30.07 in 10.0 mi NW 18.4 mph 28.8 mph N/A   Overcast
1:55 AM 28.4 °F 14.4 °F 17.6 °F 64% 30.08 in 10.0 mi NW 23.0 mph 27.6 mph N/A   Overcast
2:15 AM 26.6 °F 15.2 °F 15.8 °F 64% 30.11 in 10.0 mi NW 13.8 mph 26.5 mph N/A   Overcast
2:35 AM 26.6 °F 14.7 °F 14.0 °F 59% 30.11 in 10.0 mi NW 15.0 mph 26.5 mph N/A   Overcast
2:55 AM 24.8 °F 10.3 °F 12.2 °F 59% 30.12 in 9.0 mi NW 20.7 mph 27.6 mph N/A   Overcast
3:15 AM 23.0 °F 11.7 °F 10.4 °F 59% 30.13 in 8.0 mi NW 11.5 mph 21.9 mph N/A   Scattered Clouds
3:35 AM 21.2 °F 6.4 °F 12.2 °F 68% 30.14 in 8.0 mi NW 18.4 mph 24.2 mph N/A   Mostly Cloudy
3:55 AM 21.2 °F 8.3 °F 10.4 °F 63% 30.15 in 7.0 mi NW 13.8 mph 23.0 mph N/A   Mostly Cloudy
4:15 AM 19.4 °F 6.0 °F 10.4 °F 68% 30.17 in 8.0 mi NW 13.8 mph 19.6 mph N/A   Scattered Clouds
4:35 AM 19.4 °F 5.5 °F 8.6 °F 63% 30.18 in 10.0 mi NW 15.0 mph 21.9 mph N/A   Overcast
4:55 AM 19.4 °F 5.0 °F 8.6 °F 63% 30.19 in 10.0 mi NW 16.1 mph 24.2 mph N/A   Mostly Cloudy
5:15 AM 17.6 °F 3.2 °F 6.8 °F 63% 30.20 in 10.0 mi NW 15.0 mph 20.7 mph N/A   Mostly Cloudy
5:35 AM 17.6 °F 4.3 °F 6.8 °F 63% 30.22 in 10.0 mi NW 12.7 mph 23.0 mph N/A   Mostly Cloudy
5:55 AM 17.6 °F 3.7 °F 6.8 °F 63% 30.23 in 10.0 mi NW 13.8 mph 20.7 mph N/A   Scattered Clouds
6:15 AM 17.6 °F 5.0 °F 6.8 °F 63% 30.22 in 10.0 mi NW 11.5 mph 19.6 mph N/A   Partly Cloudy
6:35 AM 17.6 °F 4.3 °F 6.8 °F 63% 30.23 in 10.0 mi NW 12.7 mph 18.4 mph N/A   Clear
6:55 AM 17.6 °F 4.3 °F 6.8 °F 63% 30.24 in 10.0 mi NW 12.7 mph - N/A   Clear
7:15 AM 17.6 °F 6.4 °F 6.8 °F 63% 30.26 in 10.0 mi NW 9.2 mph - N/A   Clear
7:35 AM 17.6 °F 4.3 °F 6.8 °F 63% 30.27 in 10.0 mi NW 12.7 mph 21.9 mph N/A   Mostly Cloudy
7:55 AM 17.6 °F 5.7 °F 6.8 °F 63% 30.28 in 10.0 mi NW 10.4 mph - N/A   Overcast
8:15 AM 17.6 °F 6.4 °F 6.8 °F 63% 30.29 in 10.0 mi NW 9.2 mph 19.6 mph N/A   Mostly Cloudy
8:35 AM 17.6 °F 5.7 °F 6.8 °F 63% 30.31 in 10.0 mi NW 10.4 mph 16.1 mph N/A   Mostly Cloudy
8:55 AM 19.4 °F 7.9 °F 6.8 °F 58% 30.32 in 10.0 mi NW 10.4 mph - N/A   Mostly Cloudy
9:15 AM 19.4 °F 7.2 °F 6.8 °F 58% 30.32 in 10.0 mi WNW 11.5 mph 17.3 mph N/A   Scattered Clouds
9:35 AM 19.4 °F 4.5 °F 8.6 °F 63% 30.33 in 10.0 mi NW 17.3 mph 20.7 mph N/A   Partly Cloudy
9:55 AM 19.4 °F 6.6 °F 6.8 °F 58% 30.34 in 10.0 mi WNW 12.7 mph 17.3 mph N/A   Scattered Clouds
10:15 AM 19.4 °F 6.0 °F 6.8 °F 58% 30.35 in 10.0 mi NW 13.8 mph 18.4 mph N/A   Mostly Cloudy
10:35 AM 21.2 °F 9.5 °F 8.6 °F 58% 30.35 in 10.0 mi NW 11.5 mph 16.1 mph N/A   Mostly Cloudy
10:55 AM 21.2 °F 9.5 °F 8.6 °F 58% 30.35 in 10.0 mi NW 11.5 mph 16.1 mph N/A   Scattered Clouds
11:15 AM 23.0 °F 13.1 °F 8.6 °F 54% 30.35 in 10.0 mi NW 9.2 mph 18.4 mph N/A   Partly Cloudy
11:35 AM 24.8 °F 14.6 °F 10.4 °F 54% 30.34 in 10.0 mi NW 10.4 mph - N/A   Partly Cloudy
11:55 AM 24.8 °F 14.0 °F 8.6 °F 50% 30.34 in 10.0 mi NW 11.5 mph 17.3 mph N/A   Clear
12:15 PM 26.6 °F 16.8 °F 8.6 °F 47% 30.33 in 10.0 mi NNW 10.4 mph 17.3 mph N/A   Partly Cloudy
12:35 PM 26.6 °F 14.7 °F 8.6 °F 47% 30.33 in 10.0 mi NW 15.0 mph 19.6 mph N/A   Partly Cloudy
12:55 PM 26.6 °F 15.7 °F 8.6 °F 47% 30.32 in 10.0 mi NNW 12.7 mph - N/A   Clear
1:15 PM 28.4 °F 18.5 °F 8.6 °F 43% 30.32 in 10.0 mi NW 11.5 mph - N/A   Clear
1:35 PM 28.4 °F 17.0 °F 10.4 °F 47% 30.32 in 10.0 mi WNW 15.0 mph 20.7 mph N/A   Clear
1:55 PM 28.4 °F 18.0 °F 8.6 °F 43% 30.32 in 10.0 mi NNW 12.7 mph 18.4 mph N/A   Clear
2:15 PM 28.4 °F 17.5 °F 8.6 °F 43% 30.32 in 10.0 mi North 13.8 mph 18.4 mph N/A   Clear
2:35 PM 28.4 °F 18.0 °F 8.6 °F 43% 30.33 in 10.0 mi NW 12.7 mph 20.7 mph N/A   Clear
2:55 PM 28.4 °F 17.5 °F 8.6 °F 43% 30.33 in 10.0 mi NW 13.8 mph 25.3 mph N/A   Clear
3:15 PM 28.4 °F 18.5 °F 8.6 °F 43% 30.33 in 10.0 mi NNW 11.5 mph 19.6 mph N/A   Clear
3:35 PM 28.4 °F 17.5 °F 8.6 °F 43% 30.34 in 10.0 mi NNW 13.8 mph 23.0 mph N/A   Clear
3:55 PM 28.4 °F 17.0 °F 6.8 °F 40% 30.35 in 10.0 mi NNW 15.0 mph 23.0 mph N/A   Clear
4:15 PM 26.6 °F 16.2 °F 6.8 °F 43% 30.36 in 10.0 mi NW 11.5 mph 17.3 mph N/A   Clear
4:35 PM 26.6 °F 15.7 °F 6.8 °F 43% 30.37 in 10.0 mi NW 12.7 mph 18.4 mph N/A   Clear
4:55 PM 24.8 °F 14.6 °F 5.0 °F 43% 30.37 in 10.0 mi NW 10.4 mph - N/A   Clear
5:15 PM 24.8 °F 14.0 °F 5.0 °F 43% 30.38 in 10.0 mi NW 11.5 mph - N/A   Clear
5:35 PM 23.0 °F 13.1 °F 5.0 °F 46% 30.38 in 10.0 mi NNW 9.2 mph - N/A   Clear
5:55 PM 23.0 °F 13.9 °F 5.0 °F 46% 30.38 in 10.0 mi NW 8.1 mph - N/A   Clear
6:15 PM 21.2 °F 10.9 °F 5.0 °F 50% 30.39 in 10.0 mi NW 9.2 mph - N/A   Clear
6:35 PM 21.2 °F 11.7 °F 3.2 °F 46% 30.40 in 10.0 mi NNW 8.1 mph - N/A   Clear
6:55 PM 21.2 °F 11.7 °F 5.0 °F 50% 30.40 in 10.0 mi NNW 8.1 mph - N/A   Clear
7:15 PM 21.2 °F 13.6 °F 3.2 °F 46% 30.40 in 10.0 mi NNW 5.8 mph - N/A   Clear
7:35 PM 19.4 °F 12.8 °F 5.0 °F 54% 30.41 in 10.0 mi NNW 4.6 mph - N/A   Clear
7:55 PM 19.4 °F 12.8 °F 5.0 °F 54% 30.42 in 10.0 mi NW 4.6 mph - N/A   Clear
8:15 PM 19.4 °F 10.4 °F 5.0 °F 54% 30.42 in 10.0 mi NNW 6.9 mph - N/A   Clear
8:35 PM 19.4 °F 11.5 °F 3.2 °F 49% 30.42 in 10.0 mi NNW 5.8 mph - N/A   Clear
8:55 PM 19.4 °F 14.3 °F 3.2 °F 49% 30.43 in 10.0 mi North 3.5 mph - N/A   Clear
9:15 PM 19.4 °F - 3.2 °F 49% 30.44 in 10.0 mi Calm Calm - N/A   Clear
9:35 PM 19.4 °F - 3.2 °F 49% 30.44 in 10.0 mi Calm Calm - N/A   Clear
9:55 PM 17.6 °F 12.3 °F 3.2 °F 53% 30.45 in 10.0 mi NNW 3.5 mph - N/A   Clear
10:15 PM 17.6 °F 10.7 °F 3.2 °F 53% 30.45 in 10.0 mi NNW 4.6 mph - N/A   Clear
10:35 PM 17.6 °F - 3.2 °F 53% 30.46 in 10.0 mi Calm Calm - N/A   Clear
10:55 PM 17.6 °F - 1.4 °F 49% 30.47 in 10.0 mi Calm Calm - N/A   Clear
11:15 PM 15.8 °F - 1.4 °F 53% 30.47 in 10.0 mi Calm Calm - N/A   Clear
11:35 PM 15.8 °F 10.2 °F 3.2 °F 58% 30.47 in 10.0 mi WSW 3.5 mph - N/A   Clear